Weather History for Gulfport, MS

Change the Weather History Date:

Monday, March 10, 2014

  Actual Average Record
Temperature  
Mean Temperature 64 °F -  
Max Temperature 75 °F 70 °F 83 °F (1980)
Min Temperature 52 °F 50 °F 31 °F (1969)
Degree Days  
Heating Degree Days 2    
Growing Degree Days 14 (Base 50)    
Moisture  
Dew Point 53 °F    
Average Humidity 70    
Maximum Humidity 90    
Minimum Humidity 43    
Precipitation  
Precipitation 0.00 in - - ()
Sea Level Pressure  
Sea Level Pressure 30.07 in    
Wind  
Wind Speed 3 mph (South)    
Max Wind Speed 13 mph    
Max Gust Speed -    
Visibility 9 miles    
Events      
Averages and records for this station are not official NWS values.
T = Trace of Precipitation, MM = Missing Value Source: NWS Daily Summary

Daily Weather History Graph

Daily Weather History Graph

Search for Another Location

Airport:

Trip Planner

Search our weather history database for the weather conditions in past years. The results will help you decide how hot, cold, wet, or windy it might be!

Date:

Astronomy

Mar. 10, 2014 Rise Set
Actual Time 7:12 AM CDT 7:01 PM CDT
Civil Twilight 6:48 AM CDT 7:25 PM CDT
Nautical Twilight 6:20 AM CDT 7:53 PM CDT
Astronomical Twilight 5:52 AM CDT 8:21 PM CDT
Moon 2:01 PM CDT (3/10) 3:07 AM CDT (3/10)
Length of Visible Light 12h 37m
Length of Day
11h 49m
Waxing Gibbous, 70% of the Moon is Illuminated
Mar 10
Waxing Gibbous
Mar 16
Full
Mar 23
Last Quarter
Mar 30
New
Apr 7
First Quarter

Hourly Weather History & Observations

Time (CDT) Temp. Dew Point Humidity Pressure Visibility Wind Dir Wind Speed Gust Speed Precip Events Conditions
12:53 AM 55.9 °F 52.0 °F 87% 30.15 in 10.0 mi Calm Calm - N/A   Clear
1:53 AM 55.0 °F 51.1 °F 86% 30.14 in 10.0 mi Calm Calm - N/A   Clear
2:53 AM 54.0 °F 51.1 °F 90% 30.12 in 10.0 mi NW 3.5 mph - N/A   Clear
3:53 AM 54.0 °F 51.1 °F 90% 30.11 in 10.0 mi Calm Calm - N/A   Clear
4:53 AM 53.1 °F 50.0 °F 89% 30.11 in 10.0 mi Calm Calm - N/A   Clear
5:53 AM 53.1 °F 48.9 °F 86% 30.11 in 10.0 mi Calm Calm - N/A   Clear
6:53 AM 52.0 °F 48.0 °F 86% 30.12 in 7.0 mi Calm Calm - N/A   Clear
7:53 AM 53.1 °F 50.0 °F 89% 30.13 in 5.0 mi Calm Calm - N/A   Clear
8:53 AM 57.9 °F 53.1 °F 84% 30.15 in 5.0 mi Calm Calm - N/A   Haze
9:53 AM 64.0 °F 53.1 °F 67% 30.15 in 6.0 mi Calm Calm - N/A   Haze
10:53 AM 70.0 °F 53.1 °F 55% 30.15 in 10.0 mi Calm Calm - N/A   Clear
11:53 AM 75.9 °F 52.0 °F 43% 30.12 in 10.0 mi North - - N/A   Clear
12:53 PM 75.0 °F 55.9 °F 51% 30.09 in 10.0 mi SSE 10.4 mph - N/A   Clear
1:53 PM 73.9 °F 55.0 °F 52% 30.06 in 10.0 mi SSE 12.7 mph - N/A   Clear
2:53 PM 73.9 °F 54.0 °F 50% 30.02 in 10.0 mi South 9.2 mph - N/A   Clear
3:53 PM 73.9 °F 53.1 °F 48% 30.00 in 10.0 mi South 9.2 mph - N/A   Clear
4:53 PM 73.0 °F 53.1 °F 49% 29.99 in 10.0 mi SSW 9.2 mph - N/A   Clear
5:53 PM 71.1 °F 54.0 °F 55% 29.99 in 10.0 mi SSW 6.9 mph - N/A   Clear
6:53 PM 68.0 °F 54.0 °F 61% 29.99 in 10.0 mi SSW 5.8 mph - N/A   Clear
7:53 PM 66.0 °F 55.0 °F 68% 29.99 in 10.0 mi South 5.8 mph - N/A   Clear
8:53 PM 66.0 °F 57.0 °F 73% 30.00 in 10.0 mi South 3.5 mph - N/A   Clear
9:53 PM 64.9 °F 57.0 °F 75% 30.01 in 10.0 mi South 6.9 mph - N/A   Clear
10:53 PM 64.9 °F 57.0 °F 75% 30.00 in 10.0 mi South 5.8 mph - N/A   Clear
11:53 PM 64.0 °F 55.9 °F 75% 29.98 in 10.0 mi Calm Calm - N/A   Clear